Flag for U.S.A. Weather past 2 weeks in Vista, California, U.S.A.

Now
69 °F

Fog.


Feels Like: 69 °F
Forecast: 64 / 76 °F
Wind: No wind

Location: McClellan-Palomar Airport

Current Time: Jul 2, 2015 at 6:00:31 AM

Latest Report: Jul 2, 2015 at 4:53 AM


Visibility: 4 mi

Pressure: 29.94 "Hg

Humidity: 93%

Dew point: 67 °F

Location of VistaLocation

Historic Weather in Vista — Graph

°F

Vista temperature yesterday

Maximum temperature yesterday: 76 °F (at 1:53 PM)
Minimum temperature yesterday: 69 °F (at 3:53 AM)
Average temperature yesterday: 71 °F

Past Weeks' High & Low Weather Summary

 TemperatureHumidityPressure
High86 °F (Jun 30, 5:53 PM)100% (Jun 19, 4:53 AM)30.02 "Hg (Jun 19, 4:53 AM)
Low59 °F (Jun 19, 4:53 AM)60% (Jun 23, 11:53 AM)29.79 "Hg (Jun 30, 5:53 PM)
Average68 °F81%29.90 "Hg
* Reported Jun 17 4:53 AM — Jul 2 4:53 AM, Vista, Weather by CustomWeather, © 2015

Note: Actual official high and low records may vary slightly from our data, if they occured in-between our weather recording intervals... More about our weather records

Advertising

Vista weather history for previous 24 hours

 ConditionsComfort  
Time TempWeatherWind HumidityBarometerVisibility
4:53 AM
Thu, Jul 2
69 °FFog.No wind93%29.94 "Hg4 mi
3:53 AM69 °FFog.3 mph93%29.93 "Hg4 mi
2:53 AM70 °FFog.No wind87%29.93 "Hg6 mi
1:53 AM70 °FFog.No wind87%29.93 "Hg6 mi
12:53 AM70 °FFog.No wind87%29.93 "Hg6 mi
11:53 PM
Wed, Jul 1
70 °FFog.No wind87%29.93 "Hg6 mi
10:53 PM70 °FFog.No wind87%29.94 "Hg6 mi
9:53 PM69 °FFog.No wind90%29.94 "Hg6 mi
8:53 PM69 °FFog.No wind90%29.93 "Hg6 mi
7:53 PM69 °FFog.3 mph93%29.91 "Hg5 mi
6:53 PM71 °FScattered clouds.5 mph84%29.90 "Hg6 mi
6:00 PM71 °FScattered clouds.7 mph84%29.91 "Hg6 mi
4:53 PM73 °FSunny.7 mph79%29.89 "Hg7 mi
3:53 PM74 °FSunny.9 mph76%29.88 "Hg8 mi
2:53 PM76 °FSunny.7 mph72%29.90 "Hg8 mi
1:53 PM76 °FSunny.8 mph72%29.90 "Hg8 mi
12:53 PM75 °FSunny.5 mph74%29.90 "Hg7 mi
11:53 AM73 °FSunny.6 mph81%29.90 "Hg7 mi
10:53 AM74 °FScattered clouds.7 mph79%29.91 "Hg6 mi
9:53 AM74 °FHaze.No wind79%29.90 "Hg6 mi
8:53 AM71 °FFog.3 mph87%29.91 "Hg5 mi
7:53 AM71 °FFog.No wind87%29.91 "Hg4 mi
7:04 AM70 °FFog.6 mph90%29.90 "Hg3 mi
6:53 AM70 °FFog.6 mph90%29.88 "Hg4 mi
Weather by CustomWeather, © 2015

See weather overviewHow to use our weather pages